Home   Weather   Eastbourne   Past weeks
Flag for United Kingdom

Past Weather in Eastbourne, England, United Kingdom — Yesterday and Last 2 Weeks

Now
46 °F

Smoke.


Feels Like: 44 °F
Forecast: 55 / 45 °F
Wind: 5 mph from West

Location: Herstmonceux

Current Time: Apr 7, 2020 at 12:36:07 am

Latest Report: Apr 6, 2020 at 11:00 pm


Visibility: 6 mi

Pressure: 30.31 "Hg

Humidity: 90%

Dew Point: 43 °F

Location of EastbourneLocation

Past Weather in Eastbourne — Graph

°F

Eastbourne Temperature Yesterday

Maximum temperature yesterday: 59 °F (at 2:00 pm)
Minimum temperature yesterday: 46 °F (at 11:00 pm)
Average temperature yesterday: 54 °F

High & Low Weather Summary for the Past Weeks

 TemperatureHumidityPressure
High67 °F (Apr 5, 5:00 pm)100% (Apr 4, 5:00 am)30.65 "Hg (Apr 4, 5:00 am)
Low32 °F (Apr 1, 4:00 am)24% (Mar 25, 2:00 pm)29.86 "Hg (Apr 6, 3:00 am)
Average45 °F67%30.23 "Hg
* Reported Mar 22 10:00 pm — Apr 6 11:00 pm, Eastbourne. Weather by CustomWeather, © 2020

Note: Actual official high and low records may vary slightly from our data, if they occured in-between our weather recording intervals... More about our weather records

Eastbourne Weather History for the Previous 24 Hours

Scroll right to see more
 ConditionsComfort  
Time TempWeatherWind HumidityBarometerVisibility
11:00 pm
Mon, Apr 6
46 °FSmoke.5 mph90%30.31 "Hg6 mi
10:00 pm47 °FSmoke.3 mph89%30.30 "Hg6 mi
9:00 pm49 °FCool.6 mph85%30.28 "Hg6 mi
8:00 pm51 °FCool.6 mph77%30.25 "Hg7 mi
6:00 pm57 °FRefreshingly cool.9 mph56%30.19 "Hg12 mi
5:00 pm57 °FRefreshingly cool.10 mph60%30.16 "Hg12 mi
3:00 pm59 °FCool.10 mph63%30.12 "Hg9 mi
2:00 pm59 °FCool.10 mph64%30.10 "Hg10 mi
1:00 pm58 °FCool.8 mph74%30.07 "Hg11 mi
12:00 pm58 °FCool.8 mph79%30.04 "Hg11 mi
11:00 am55 °FCool.7 mph79%30.01 "Hg11 mi
10:00 am54 °FCool.6 mph83%29.99 "Hg17 mi
9:00 am55 °FCool.7 mph76%29.96 "Hg17 mi
8:00 am54 °FCool.5 mph79%29.93 "Hg25 mi
7:00 am49 °FCool.3 mph82%29.91 "Hg22 mi
6:00 am50 °FCool.1 mph78%29.89 "Hg25 mi
5:00 am53 °FCool.5 mph70%29.87 "Hg28 mi
4:00 am54 °FCool.6 mph68%29.87 "Hg31 mi
3:00 am53 °FCool.6 mph65%29.86 "Hg25 mi
2:00 am53 °FCool.5 mph62%29.87 "Hg31 mi
1:00 am54 °FCool.7 mph59%29.87 "Hg28 mi
12:00 am55 °FRefreshingly cool.8 mph58%29.87 "Hg31 mi
Weather by CustomWeather, © 2020

See weather overview

Advertising